DECAYED
Showing default

LEMUR 2 OZARAK, 46908 (Decayed)

Orbit data source: Space-Track

LEMUR 2 OZARAK, 46908 was a payload satellite owned by Spire (US) in LEO that was launched on Sat, 07 Nov 2020 UTC via a PSLV-DL launch vehicle from the Sirharikota (SRI). Payloads include a variety of satellites, spacecraft, and rockets equipped with specific instruments for various scientific and technological missions. These include communications satellites like Starlink; space stations such as the ISS; scientific satellites like the Hubble; Earth observation satellites from companies like Planet Labs, Umbra, and HawkEye 360; GPS; miniature CubeSats for education and research; and military/defense satellites.

Not visible in the next 10 days
LEMUR 2 OZARAK details
Identifier
46908, 2020-081D
Orbit
Decayed
Last TLE update2 months ago
Origin
Flag of USSpire (US)
ManufacturerSpire/Glasgow
MissionDecayed Commercial Com/MetRO
Bus & MotorCUBESAT 3U, Unknown motor
Mass4.6 kg wet, 4.6 kg dry
Launch date (UTC)
2020-11-07 (4 years ago)
Launch vehicle
PSLV-DL
Launch site
Sirharikota (SRI)
Object type
Payload
Rocket body
Debris
Shape & HBRBox + 2 Pan, 0.7 m
Radar Cross Section0.124 m², Small (<0.1 m²)

Expand to show TLE details & history

TLE from 2 months ago
0 LEMUR 2 OZARAK
1 46908U 20081D   24288.74241146  .07682509  36624-5  17104-2 0  9999
2 46908  36.8706  76.1351 0009808 337.4116  22.6234 16.29058783217527
Epoch: 2024-10-14T17:49Z
Definitive object data (Epoch: 2024-10-14T17:49:04.35Z)
Latitude0.00004°
Longitude145.10185°
Altitude188.186 km
Speed7.799 km/s
True Right ascension05h 04m 32s
True Declination0° 00' 00"
Sunlit
Object was in full shadow at TLE epoch
Visualization observer readout
Observer readout values are unavailable because the object's trajectory could not be propagated. This is usually caused when the trajectory data is faulty or the object's orbit has decayed.
Visualization observer readout
Observer readout values are unavailable because the object's trajectory could not be propagated. This is usually caused when the trajectory data is faulty or the object's orbit has decayed.
Orbital elements
Apogee altitude204.608 km
Perigee altitude191.707 km
Semi-major axis6,576.295 km
Eccentricity0.0009808
Inclination36.8706°
RAAN76.1351°
Arg. of periapsis337.4116°
True anomaly22.66668°
Mean anomaly22.6234°
Eccentric anomaly22.64504°
Mean motion4.06978 °/min
BSTAR0.0017104
Orbital period88.46 mins
Loading maneuver chart data...
Loading historical data...
Loading historical data...
Loading historical data...
Loading historical data...
Loading historical data...
Loading historical data...
Loading historical data...

LEMUR 2 OZARAK Visibility forecast

Observer location: undefined°, undefined

This satellite is decayed
Span
Click to sort rows by Start time (UTC) header in descending order
Start Az.
Max El. time (UTC)
Max El. Az.
Max El.
End time (UTC)
End Az.
|